EW1895 Weather Reports


Display with metric or nautical units.
time (UTC)temp
F
wind
direction
speed
MPH
gust
MPH
rain 1hr
in
rain 24hr
in
rain mn
in
humidity
%
barometer
mb
20260505121509 61 214 0.0 1.0 0.00 0.00 0.00 70 1014.6
20260505120006 60 276 0.0 0.0 0.00 0.00 0.00 73 1014.6
20260505114506 59 306 0.0 4.0 0.00 0.00 0.00 74 1014.4
20260505113003 59 199 0.0 2.0 0.00 0.00 0.00 75 1014.2
20260505111504 58 249 0.0 0.0 0.00 0.00 0.00 76 1014.2
20260505101556 58 240 0.0 0.0 0.00 0.00 0.00 73 1013.6
20260505100055 58 269 0.0 0.0 0.00 0.00 0.00 73 1013.5
20260505094553 59 272 0.0 1.0 0.00 0.00 0.00 72 1013.5
20260505093052 59 298 0.0 0.0 0.00 0.00 0.00 71 1013.5
20260505091607 59 169 0.0 1.0 0.00 0.00 0.00 71 1013.5
20260505090051 59 234 0.0 3.0 0.00 0.00 0.00 71 1013.4
20260505084550 59 252 0.0 1.0 0.00 0.00 0.00 70 1013.4
20260505083049 59 215 0.0 1.0 0.00 0.00 0.00 69 1013.5
20260505081557 60 209 0.0 0.0 0.00 0.00 0.00 67 1013.3
20260505080058 60 131 0.0 2.0 0.00 0.00 0.00 66 1013.4
20260505074546 60 140 0.0 2.0 0.00 0.00 0.00 65 1013.4
20260505073047 60 244 0.0 3.0 0.00 0.00 0.00 64 1013.2
20260505071553 60 131 0.0 1.0 0.00 0.00 0.00 63 1013.0
20260505070047 60 209 0.0 3.0 0.00 0.00 0.00 62 1012.9
20260505064541 61 342 0.0 7.0 0.00 0.00 0.00 61 1013.0
20260505063048 61 239 0.0 4.0 0.00 0.00 0.00 60 1013.0
20260505061604 61 192 0.0 1.0 0.00 0.00 0.00 59 1012.9
20260505060036 62 248 0.0 2.0 0.00 0.00 0.00 59 1013.0
20260505054536 62 251 0.0 2.0 0.00 0.00 0.00 58 1013.0
20260505053040 62 195 0.0 4.0 0.00 0.00 0.00 58 1012.9
20260505051554 61 182 0.0 1.0 0.00 0.00 0.00 59 1013.0
20260505041531 61 222 0.0 0.0 0.00 0.00 0.00 62 1012.5
20260505040028 62 222 0.0 0.0 0.00 0.00 0.00 61 1012.4
20260505034529 62 222 0.0 0.0 0.00 0.00 0.00 62 1012.5
20260505033028 62 222 0.0 0.0 0.00 0.00 0.00 61 1012.4
20260505031522 63 222 0.0 0.0 0.00 0.00 0.00 59 1012.6
20260505030022 63 222 0.0 0.0 0.00 0.00 0.00 58 1012.6
20260505024518 64 222 0.0 0.0 0.00 0.00 0.00 58 1012.7
20260505023014 65 222 0.0 0.0 0.00 0.00 0.00 55 1012.5
20260505021512 65 223 0.0 0.0 0.00 0.00 0.00 53 1012.5
20260505020011 66 223 0.0 0.0 0.00 0.00 0.00 52 1012.5
20260505014508 66 145 0.0 0.0 0.00 0.00 0.00 51 1012.4
20260505013107 67 145 0.0 0.0 0.00 0.00 0.00 49 1012.3
20260505011501 68 135 0.0 0.0 0.00 0.00 0.00 47 1012.1
20260505010113 68 135 0.0 0.0 0.00 0.00 0.00 47 1011.9
20260505004559 69 123 0.0 1.0 0.00 0.00 0.00 45 1011.8
20260505003058 70 217 0.0 0.0 0.00 0.00 0.00 45 1011.6
20260505001603 70 217 0.0 1.0 0.00 0.00 0.00 45 1011.7
20260505000055 70 115 0.0 1.0 0.00 0.00 0.00 43 1011.5
20260504234548 71 148 0.0 2.0 0.00 0.00 0.00 41 1011.8
20260504233103 71 165 0.0 0.0 0.00 0.00 0.00 39 1011.8
20260504231547 72 140 0.0 2.0 0.00 0.00 0.00 38 1011.6
20260504230052 73 163 0.0 2.0 0.00 0.00 0.00 37 1011.4
20260504224540 74 137 0.0 1.0 0.00 0.00 0.00 36 1011.5
20260504223035 75 182 1.0 5.0 0.00 0.00 0.00 34 1011.7
20260504221532 76 73 0.0 5.0 0.00 0.00 0.00 33 1011.7
20260504220035 77 261 2.0 7.0 0.00 0.00 0.00 33 1011.5
20260504214532 78 217 0.0 3.0 0.00 0.00 0.00 33 1011.5
20260504213032 79 204 1.0 7.0 0.00 0.00 0.00 31 1011.4
20260504211533 79 18 0.0 5.0 0.00 0.00 0.00 31 1011.5
20260504210034 79 334 0.0 7.0 0.00 0.00 0.00 31 1011.6
20260504204527 79 198 0.0 5.0 0.00 0.00 0.00 32 1011.7
20260504203039 80 78 0.0 4.0 0.00 0.00 0.00 29 1011.8
20260504201527 80 141 0.0 7.0 0.00 0.00 0.00 30 1011.8
20260504200025 80 317 0.0 5.0 0.00 0.00 0.00 30 1012.1
20260504194523 80 233 1.0 4.0 0.00 0.00 0.00 29 1012.3
20260504193023 80 196 0.0 6.0 0.00 0.00 0.00 29 1012.4
20260504191524 79 239 1.0 7.0 0.00 0.00 0.00 29 1012.7
20260504190016 79 55 0.0 9.0 0.00 0.00 0.00 29 1012.9
20260504184514 78 227 0.0 5.0 0.00 0.00 0.00 30 1013.1
20260504183012 76 360 0.0 5.0 0.00 0.00 0.00 32 1013.3
20260504181512 77 134 0.0 6.0 0.00 0.00 0.00 31 1013.4
20260504180011 76 273 0.0 2.0 0.00 0.00 0.00 30 1013.6
20260504174511 78 190 1.0 6.0 0.00 0.00 0.00 29 1013.8
20260504173010 78 103 0.0 7.0 0.00 0.00 0.00 29 1013.6
20260504171506 78 151 1.0 7.0 0.00 0.00 0.00 29 1014.0